Miscellaneous Local Product
Issued by NWS North Platte, NE

Home | Current Version | Previous Version | Graphics & Text | Print | Product List | Glossary On
Versions: 1 2 3 4 5 6 7 8 9 10 11 12 13 14 15 16 17 18 19 20 21 22 23 24 25 26 27 28 29 30 31 32 33 34 35 36 37 38 39 40 41 42 43 44 45 46 47 48 49 50
604
AXUS43 KLBF 291110
MISLBF


WESTERN AND NORTH CENTRAL NEBRASKA HOURLY WEATHER ROUNDUP
NATIONAL WEATHER SERVICE NORTH PLATTE NE
600 AM CDT THU JUN 29 2017

NOTE: "FAIR" INDICATES FEW OR NO CLOUDS BELOW 12,000 FEET WITH NO
SIGNIFICANT WEATHER AND/OR OBSTRUCTIONS TO VISIBILITY.

NOTE: STATIONS NOT REPORTING VARIABLES SUCH AS SKY/WEATHER OR
PRESSURE ARE PROVIDED BY RAWS AND APRS NETWORKS AND ARE NOT UNDER
NATIONAL WEATHER SERVICE QUALITY CONTROL.

...OBSERVATIONS IN AND NEAR THE EASTERN PANHANDLE OF NEBRASKA...

CITY           SKY/WX    TMP DP  RH WIND       PRES   REMARKS
PINE RIDGE     CLEAR     53  52  96 NW5       29.81R
GORDON         FAIR      53  50  91 CALM      29.79R
CHADRON        CLEAR     52  48  86 NW5       29.83R
ALLIANCE       CLEAR     51  49  92 SW7       29.82R
SIDNEY         CLEAR     54  50  86 W8        29.86R
CRESCENT LAKE    N/A     59  53  80 CALM        N/A
$$

...OBSERVATIONS IN NORTHERN NEBRASKA AND FAR SOUTHERN SOUTH DAKOTA...

CITY           SKY/WX    TMP DP  RH WIND       PRES   REMARKS
WINNER         FAIR      62  51  67 SE7       29.76R
VALENTINE      CLOUDY    62  52  69 S5        29.76R
THEDFORD       CLOUDY    60  56  87 CALM      29.78R
AINSWORTH      MOCLDY    61  55  78 SE5       29.77R
O`NEILL        CLOUDY    62  56  79 SE6       29.77F
ORD            CLOUDY    63  56  78 SE8       29.78F
BROKEN BOW     CLOUDY    70  54  56 E10G26    29.72F
VALENTINE NWR    N/A     60  54  82 SE6G13      N/A
HALSEY           N/A     63  56  77 SE6G18      N/A
BUTTE            N/A     63  49  59 E6          N/A
CHAMBERS         N/A     66  53  64 CALM        N/A
$$

...OBSERVATIONS IN SOUTHWEST NEBRASKA AND FAR NORTHEAST COLORADO...

CITY           SKY/WX    TMP DP  RH WIND       PRES   REMARKS
WRAY           FAIR      61  54  77 E9        29.84S
IMPERIAL       CLOUDY    60  53  77 SE7       29.81R
OGALLALA       CLOUDY    64  54  71 SE6       29.78R
NORTH PLATTE   CLOUDY    63  58  83 SE9       29.75R
MCCOOK         CLOUDY    66  57  72 E13       29.79F
LEXINGTON      MOCLDY    68  56  65 NE12      29.82F
STAPLETON        N/A     65  56  73 CALM        N/A
GOTHENBURG       N/A     65  53  65 E8          N/A
CALLAWAY         N/A     62  57  84 SE15        N/A
$$

...OBSERVATIONS IN CENTRAL LINCOLN COUNTY AREA...

CITY           SKY/WX    TMP DP  RH WIND       PRES   REMARKS
N.P. AIRPORT   CLOUDY    63  58  83 SE9       29.75R
N.P. DOWNTOWN    N/A     64  56  77 CALM        N/A
N.P. SOUTHEAST   N/A     64  56  76 SE6G14      N/A
N.P. HILLCREST   N/A     63  57  81 SE12G18     N/A
$$

...SOME OBSERVATIONS FROM AROUND THE REGION...

CITY           SKY/WX    TMP DP  RH WIND       PRES   REMARKS
DENVER         PTCLDY    59  45  59 S10       29.93R
LIMON          CLEAR     50  49  96 CALM      29.93R
ASPEN          CLOUDY    46  28  49 SW5       30.10R
LARAMIE        CLOUDY    46  35  65 NW3       30.06R
CASPER         CLEAR     45  42  89 SW5       29.98R
CHEYENNE       CLOUDY    53  36  52 W9        29.98R
SCOTTSBLUFF    CLEAR     57  47  69 NW7       29.86R
GRAND ISLAND   CLOUDY    68  65  90 SW7       29.81R
OMAHA          CLOUDY    73  68  84 S7        29.76R
SIOUX FALLS    CLOUDY    59  59 100 CALM      29.78R
PIERRE         CLOUDY    55  46  71 N8        29.75R
RAPID CITY     CLOUDY    59  52  77 N8        29.83R
BISMARCK       CLOUDY    59  55  87 CALM      29.80R
KANSAS CITY    DRIZZLE   69  65  86 SE20      29.85S
HILL CITY      CLOUDY    66  61  84 NW28G36   29.72F
WICHITA        MOCLDY    74  67  78 S17       29.76R
DODGE CITY     CLEAR     69  64  84 E6        29.77R
OKLAHOMA CITY  PTCLDY    73  68  84 S16       29.82R
DALLAS         PTCLDY    76  72  87 S16       29.84R
AMARILLO       CLEAR     70  59  68 SW16      29.82R
$$




USA.gov is the U.S. government's official web portal to all federal, state and local government web resources and services.